OPTICUBE 04

Last updated on Wed Nov 05 2025 00:03:48 GMT+0000 (Coordinated Universal Time)

1 41851U 16067D 25308.49214235 .00003934 00000+0 25810-3 0 9994 2 41851 98.0856 143.9534 0016595 153.0177 207.1916 15.08203372491287
UTC large
Height (km)
Speed (km/s)
/
Latitude / Longitude
Inclination (degrees)
Orbital Period (minutes)
Azimuth
Elevation
Range (km)
Doppler Factor

Next 0 passes for location: London (51.5072 / 0.1276)

Sorry there are no passes over London.